SP6DW-13 Weather Reports


time (UTC)temp
C
wind
direction
speed
KPH
gust
KPH
rain 1hr
cm
rain 24hr
cm
rain mn
cm
humidity
%
barometer
mb
20260507052036 10 121 0.0 3.2 0.05 1.27 1.27 94 1010.7
20260507051036 10 105 0.0 1.6 0.13 1.27 1.27 94 1010.6
20260507050016 10 119 0.0 1.6 0.20 1.24 1.24 95 1010.5
20260507045015 10 109 0.0 1.6 0.28 1.24 1.24 95 1010.5
20260507044021 10 80 0.0 3.2 0.30 1.24 1.24 95 1010.4
20260507043042 9 107 0.0 1.6 0.30 1.24 1.24 95 1010.3
20260507042055 10 82 0.0 1.6 0.30 1.22 1.22 95 1010.3
20260507041047 10 84 0.0 1.6 0.23 1.14 1.14 95 1010.1
20260507040015 10 116 0.0 3.2 0.13 1.04 1.04 95 1010.1
20260507035018 10 72 0.0 3.2 0.05 0.97 0.97 95 1010.1
20260507034015 10 70 0.0 1.6 0.03 0.94 0.94 95 1010.2
20260507033015 10 79 1.6 4.8 0.03 0.94 0.94 94 1010.0
20260507032016 10 91 0.0 3.2 0.00 0.91 0.91 94 1009.9
20260507031036 10 114 0.0 3.2 0.00 0.91 0.91 94 1009.7
20260507030016 10 79 0.0 3.2 0.00 0.91 0.91 94 1009.7
20260507025016 10 69 1.6 3.2 0.03 0.91 0.91 94 1009.7
20260507024016 11 102 0.0 1.6 0.03 0.91 0.91 95 1009.8
20260507023025 11 76 0.0 3.2 0.05 0.91 0.91 95 1009.7
20260507022021 11 61 1.6 4.8 0.08 0.91 0.91 95 1009.7
20260507021016 11 57 1.6 3.2 0.13 0.91 0.91 95 1009.4
20260507020028 11 71 1.6 3.2 0.20 0.91 0.91 95 1009.4
20260507015016 11 59 1.6 3.2 0.33 0.89 0.89 95 1009.3
20260507014016 11 0.0 0.0 0.38 0.89 0.89 95 1009.3
20260507013048 11 80 0.0 1.6 0.51 0.86 0.86 95 1009.1
20260507012031 11 111 0.0 1.6 0.61 0.84 0.84 95 1008.9
20260507011021 12 110 0.0 1.6 0.71 0.79 0.79 94 1008.9
20260507010015 12 107 0.0 1.6 0.64 0.71 0.71 94 1008.9
20260507005028 12 0.0 0.0 0.48 0.56 0.56 94 1008.8
20260507004016 12 0.0 0.0 0.43 0.53 0.51 94 1008.7
20260507003015 12 86 0.0 1.6 0.30 0.38 0.36 94 1008.5
20260507002025 12 73 0.0 3.2 0.18 0.28 0.23 94 1008.5
20260507001016 12 78 0.0 1.6 0.03 0.15 0.08 93 1008.4
20260507000027 12 63 1.6 3.2 0.05 0.23 0.08 92 1008.3
20260506235016 12 0.0 0.0 0.05 0.33 0.08 92 1008.3
20260506234021 12 0.0 0.0 0.08 0.41 0.08 91 1008.2
20260506233019 12 105 0.0 1.6 0.05 0.43 0.05 91 1008.2
20260506232016 13 111 0.0 1.6 0.05 0.43 0.05 91 1008.0
20260506231033 13 112 0.0 1.6 0.05 0.46 0.05 89 1008.0
20260506230015 13 132 0.0 3.2 0.03 0.43 0.03 88 1008.1
20260506225028 13 108 0.0 1.6 0.03 0.43 0.03 87 1008.4
20260506224016 13 111 0.0 1.6 0.00 0.43 0.00 87 1008.5
20260506223015 13 79 0.0 1.6 0.00 0.46 0.00 85 1008.4
20260506222026 13 116 0.0 3.2 0.00 0.56 0.00 85 1008.3
20260506221015 13 77 0.0 3.2 0.00 0.56 0.00 84 1008.1
20260506220015 13 76 0.0 3.2 0.00 0.56 0.00 84 1008.0
20260506215015 13 78 0.0 1.6 0.00 0.56 0.56 85 1007.9
20260506214036 13 77 1.6 6.4 0.00 0.56 0.56 84 1007.7
20260506213056 13 114 0.0 3.2 0.00 0.56 0.56 84 1007.7
20260506212015 13 113 1.6 4.8 0.00 0.56 0.56 84 1007.5
20260506211015 13 121 1.6 4.8 0.00 0.56 0.56 84 1007.4
20260506210016 13 139 3.2 6.4 0.00 0.56 0.56 85 1007.6
20260506205016 14 139 1.6 6.4 0.00 0.56 0.56 87 1007.8
20260506204016 14 127 1.6 4.8 0.00 0.56 0.56 87 1007.6
20260506203022 14 150 3.2 6.4 0.00 0.56 0.56 86 1007.6
20260506202022 14 118 1.6 4.8 0.00 0.56 0.56 85 1007.5
20260506201036 15 152 1.6 4.8 0.00 0.56 0.56 83 1007.8
20260506200016 15 102 0.0 1.6 0.00 0.56 0.56 81 1007.8
20260506195025 15 82 1.6 4.8 0.00 0.56 0.56 79 1007.8
20260506194016 15 71 1.6 6.4 0.00 0.56 0.56 78 1007.8
20260506193016 16 111 1.6 4.8 0.00 0.56 0.56 78 1007.4
20260506192023 16 87 1.6 6.4 0.00 0.56 0.56 77 1007.2
20260506191023 16 72 1.6 9.7 0.00 0.56 0.56 74 1007.0
20260506190016 17 109 0.0 1.6 0.00 0.56 0.56 71 1007.2
20260506185021 17 82 0.0 3.2 0.00 0.56 0.56 71 1007.1
20260506184015 17 95 0.0 3.2 0.00 0.56 0.56 70 1006.9
20260506183022 17 103 1.6 6.4 0.00 0.56 0.56 69 1006.7
20260506182016 17 81 1.6 9.7 0.00 0.56 0.56 68 1006.7
20260506181028 18 95 1.6 6.4 0.00 0.56 0.56 67 1006.6
20260506180016 18 77 1.6 6.4 0.00 0.56 0.56 65 1006.4
20260506175056 18 85 1.6 6.4 0.00 0.56 0.56 63 1006.4
20260506174015 20 72 1.6 4.8 0.00 0.56 0.56 61 1006.3
20260506173015 20 76 1.6 3.2 0.00 0.56 0.56 57 1006.2
20260506172016 20 69 1.6 4.8 0.00 0.56 0.56 57 1006.2
20260506171103 21 69 1.6 4.8 0.00 0.56 0.56 57 1006.4
20260506170037 20 84 0.0 3.2 0.00 0.56 0.56 57 1006.4
20260506165016 21 111 0.0 1.6 0.00 0.56 0.56 49 1006.4
20260506164016 21 33 1.6 11.3 0.00 0.56 0.56 48 1006.4
20260506163016 22 9 1.6 6.4 0.00 0.56 0.56 46 1006.3
20260506162016 21 126 1.6 9.7 0.00 0.56 0.56 48 1006.0
20260506161039 22 72 1.6 4.8 0.00 0.56 0.56 47 1006.3
20260506160016 21 68 1.6 11.3 0.00 0.56 0.56 48 1006.4
20260506155027 22 54 1.6 6.4 0.00 0.56 0.56 46 1006.3
20260506154059 22 52 1.6 6.4 0.00 0.56 0.56 48 1006.5
20260506153016 22 52 1.6 6.4 0.00 0.56 0.56 47 1006.6
20260506152016 21 129 1.6 6.4 0.00 0.56 0.56 46 1006.7
20260506151016 22 12 4.8 11.3 0.00 0.56 0.56 45 1006.7
20260506150015 23 0 3.2 12.9 0.00 0.56 0.56 44 1006.7
20260506145016 23 82 3.2 11.3 0.00 0.56 0.56 44 1006.8
20260506144015 23 143 3.2 11.3 0.00 0.56 0.56 44 1006.9
20260506143022 23 119 1.6 6.4 0.00 0.56 0.56 44 1007.0
20260506142022 23 148 4.8 11.3 0.00 0.56 0.56 45 1007.0
20260506141016 23 131 1.6 6.4 0.00 0.56 0.56 46 1007.1
20260506133016 22 153 4.8 12.9 0.00 0.56 0.56 47 1007.4
20260506131526 22 156 4.8 11.3 0.00 0.56 0.56 47 1007.4
20260506125516 22 166 4.8 11.3 0.00 0.56 0.56 49 1007.4
20260506124516 21 112 3.2 11.3 0.00 0.56 0.56 51 1007.4
20260506123525 21 189 3.2 9.7 0.00 0.56 0.56 52 1007.6
20260506123036 21 152 4.8 14.5 0.00 0.56 0.56 51 1007.6
20260506122036 21 151 4.8 11.3 0.00 0.56 0.56 53 1007.6
20260506121016 20 73 3.2 12.9 0.00 0.56 0.56 54 1007.6
20260506120016 21 99 4.8 14.5 0.00 0.56 0.56 54 1007.6
20260506115016 20 163 4.8 12.9 0.00 0.56 0.56 55 1007.7
20260506114028 20 160 4.8 12.9 0.00 0.56 0.56 58 1007.7
20260506113035 20 44 4.8 14.5 0.00 0.56 0.56 60 1007.8
20260506112016 20 146 3.2 9.7 0.00 0.56 0.56 61 1007.7
20260506111035 18 106 3.2 14.5 0.00 0.56 0.56 61 1007.8
20260506110016 19 24 6.4 20.9 0.00 0.56 0.56 61 1007.9
20260506105023 18 348 8.0 20.9 0.00 0.56 0.56 62 1007.9
20260506104026 18 150 3.2 12.9 0.00 0.56 0.56 64 1007.8
20260506103017 18 115 3.2 12.9 0.00 0.56 0.56 66 1007.8
20260506102016 18 89 1.6 11.3 0.00 0.56 0.56 66 1008.0
20260506101032 17 57 4.8 20.9 0.00 0.56 0.56 68 1008.1
20260506100017 17 158 4.8 12.9 0.00 0.56 0.56 68 1007.8
20260506095020 17 163 4.8 17.7 0.00 0.56 0.56 69 1008.1
20260506094028 17 179 4.8 11.3 0.00 0.56 0.56 68 1007.8
20260506093024 16 163 6.4 16.1 0.00 0.56 0.56 71 1007.9
20260506092028 17 153 3.2 14.5 0.00 0.56 0.56 70 1007.9
20260506091020 16 145 3.2 11.3 0.00 0.56 0.56 73 1007.8
20260506090016 16 145 6.4 16.1 0.00 0.56 0.56 74 1007.9
20260506085015 16 160 4.8 14.5 0.00 0.56 0.56 73 1007.7
20260506084028 15 158 4.8 14.5 0.00 0.56 0.56 75 1007.5
20260506083016 15 161 4.8 12.9 0.00 0.56 0.56 75 1007.5
20260506082016 16 357 6.4 20.9 0.00 0.56 0.56 74 1007.5
20260506081016 16 57 3.2 11.3 0.00 0.56 0.56 74 1007.2
20260506073016 14 155 6.4 14.5 0.00 0.56 0.56 79 1007.2
20260506072015 14 122 3.2 11.3 0.00 0.56 0.56 81 1007.2
20260506071043 14 173 6.4 14.5 0.00 0.56 0.56 81 1007.2
20260506062016 13 148 3.2 11.3 0.00 0.56 0.56 84 1007.5
20260506061019 13 154 1.6 14.5 0.00 0.56 0.56 84 1007.5